Regional Weather Roundup
Issued by NWS

Current Version | Previous Version | Text Only | Print | Product List | Glossary On
Versions: 1 2 3 4 5 6 7 8 9 10 11 12 13 14 15 16 17 18 19 20 21 22 23 24 25 26 27 28 29 30 31 32 33 34 35 36 37 38 39 40 41 42 43 44 45 46 47 48 49 50
000
ASUS44 KOUN 192310
RWROK

WEATHER ROUNDUP FOR OKLAHOMA
NATIONAL WEATHER SERVICE NORMAN OK
600 PM CDT TUE SEP 19 2017

NOTE: "FAIR" INDICATES FEW OR NO CLOUDS BELOW 12,000 FEET WITH NO
      SIGNIFICANT WEATHER AND/OR OBSTRUCTIONS TO VISIBILITY.

OKZ001>007-009>012-014-015-017-200000-
NORTHWEST OKLAHOMA AND THE PANHANDLE

CITY           SKY/WX    TMP DP  RH WIND       PRES   REMARKS
GAGE           SUNNY     93  61  34 S24G33    29.65F HX  93
GUYMON         CLOUDY    93  29  10 SW22G33   29.64S
ENID/WOODRING  SUNNY     95  68  41 S23G37    29.65S HX  99
$$

OKZ016-021>023-033>039-044-045-200000-
SOUTHWEST OKLAHOMA

CITY           SKY/WX    TMP DP  RH WIND       PRES   REMARKS
LAWTON/REGL    CLOUDY    82  65  56 S13       29.71F
LAWTON/FT SILL CLOUDY    83  67  59 S12       29.71S
FREDERICK      CLOUDY    83  67  58 SE22G33   29.70R
CLINTON        SUNNY     93  59  31 S20       29.71F HX  92
HOBART         SUNNY     88  65  46 S18       29.70F HX  90
ALTUS AFB      SUNNY     90  65  43 SE21G30   29.70R HX  91
$$

OKZ018>020-024>031-200000-
CENTRAL OKLAHOMA

CITY           SKY/WX    TMP DP  RH WIND       PRES   REMARKS
OKLAHOMA CITY  MOSUNNY   91  68  46 S20G26    29.72S HX  95
OKC/WILEY POST SUNNY     92  68  45 S23G31    29.70F HX  96
OKC/TINKER AFB SUNNY     91  67  45 S21G26    29.72F HX  95
STILLWATER     SUNNY     94  65  38 S25G33    29.69F HX  96
GUTHRIE        SUNNY     94  67  41 S17G29    29.69S HX  97
$$

OKZ008-013-054>072-200000-
NORTHEAST OKLAHOMA

CITY           SKY/WX    TMP DP  RH WIND       PRES   REMARKS
TULSA          MOSUNNY   90  73  57 S18G26    29.72F HX  98
TULSA/JONES    SUNNY     92  70  48 S10G23    29.72F HX  97
PONCA CITY     SUNNY     94  67  41 S13G24    29.66F HX  97
BARTLESVILLE   SUNNY     90  71  53 S12G20    29.72F HX  96
MUSKOGEE       SUNNY     88  71  57 S10       29.78F HX  94
$$

OKZ032-040>043-046>053-073>077-200000-
SOUTH CENTRAL/SOUTHEAST OKLAHOMA

CITY           SKY/WX    TMP DP  RH WIND       PRES   REMARKS
ARDMORE/DWNTWN CLOUDY    88  68  51 S7        29.75F HX  91
MCALESTER      SUNNY     91  71  51 S7G18     29.78F HX  97
$$





USA.gov is the U.S. government's official web portal to all federal, state and local government web resources and services.